Voltar ao catálogo

STARLINK-34079

AtivoComunicaçõesVLEO
NORAD 64038·PAYLOAD·🇺🇸 United States

Lançado May 16, 2025 de Vandenberg Space Force Base

Loading…

Próximas Passagens (próximas 24 horas)

TLE

AtualizadoSource: CelesTrak SupGP

Época: Sep 15, 2026, 02:10 UTC

1 64038C 25102S   26258.09076389  .00106650  00000+0  37166-2 0  2586
2 64038  70.0009 355.2080 0003160 266.4395 148.4457 15.29469636    12

Acompanhe STARLINK-34079 em tempo real com AllMySat

Download on the App Store